EUTELSAT HOTBIRD 13G

Last updated on Mon Sep 14 2026 00:03:02 GMT+0000 (Coordinated Universal Time)

1 54225U 22146A 26256.57983383 .00000077 00000+0 00000+0 0 9992 2 54225 0.0496 233.2833 0002081 303.5413 37.4822 1.00272567 8355
UTC large
Height (km)
Speed (km/s)
/
Latitude / Longitude
Inclination (degrees)
Orbital Period (minutes)
Azimuth
Elevation
Range (km)
Doppler Factor

Next 0 passes for location: London (51.5072 / 0.1276)

No passes found over London.
EUTELSAT HOTBIRD 13G